QTR571 UAAA-UACC

Flight info

Callsign QTR571
Flight time N/A
Altitude 34000
Route ETEDA1J ETEDA W333 BANOS BANOS1D
Aircraft B77L/H-SDE1E2E3FGHIJ2J3J4J5M1RWXY/LB1D1

Departure

Time N/A
Airport Almaty International Airport (UAAA)

Arrival

Time 2026-05-08 19:44
Airport Nursultan Nazarbayev International Airport (UACC)
Time Latitude Longitude Altitude Speed Heading
2026-05-08 19:22 49.97100 72.96364 24299 ft 417 kts 311°
2026-05-08 19:22 49.98704 72.94026 23909 ft 414 kts 311°
2026-05-08 19:23 50.00906 72.90811 23371 ft 410 kts 311°
2026-05-08 19:23 50.02968 72.87799 22869 ft 406 kts 310°
2026-05-08 19:23 50.04413 72.85683 22510 ft 404 kts 310°
2026-05-08 19:23 50.06411 72.82758 22021 ft 402 kts 310°
2026-05-08 19:24 50.08382 72.79865 21531 ft 399 kts 310°
2026-05-08 19:24 50.10391 72.76916 21020 ft 396 kts 310°
2026-05-08 19:24 50.12372 72.74004 20520 ft 393 kts 310°
2026-05-08 19:24 50.14350 72.71092 20026 ft 390 kts 310°
2026-05-08 19:25 50.16289 72.68235 19532 ft 388 kts 310°
2026-05-08 19:25 50.18215 72.65520 19053 ft 390 kts 315°
2026-05-08 19:25 50.20383 72.63291 18603 ft 393 kts 324°
2026-05-08 19:26 50.24357 72.60131 18075 ft 393 kts 327°
2026-05-08 19:26 50.27572 72.57604 17627 ft 392 kts 327°
2026-05-08 19:26 50.30002 72.55690 17269 ft 389 kts 327°
2026-05-08 19:26 50.32396 72.53800 16853 ft 388 kts 327°
2026-05-08 19:27 50.34763 72.51928 16545 ft 384 kts 327°
2026-05-08 19:27 50.37085 72.50088 16262 ft 382 kts 327°
2026-05-08 19:27 50.39255 72.48366 15965 ft 382 kts 327°
2026-05-08 19:27 50.41542 72.46549 15637 ft 379 kts 327°
2026-05-08 19:28 50.44002 72.44592 15264 ft 376 kts 327°
2026-05-08 19:28 50.46329 72.42740 14922 ft 374 kts 328°
2026-05-08 19:28 50.48635 72.40900 14585 ft 372 kts 328°
2026-05-08 19:28 50.50948 72.39053 14238 ft 370 kts 328°
2026-05-08 19:29 50.53263 72.37202 13900 ft 368 kts 328°
2026-05-08 19:29 50.55543 72.35378 13570 ft 366 kts 328°
2026-05-08 19:29 50.57052 72.34170 13352 ft 365 kts 328°
2026-05-08 19:29 50.60078 72.31744 12914 ft 362 kts 328°
2026-05-08 19:30 50.62300 72.29959 12586 ft 359 kts 328°
2026-05-08 19:30 50.64499 72.28194 12261 ft 352 kts 328°
2026-05-08 19:30 50.66651 72.26465 11945 ft 345 kts 328°
2026-05-08 19:30 50.68805 72.24731 11632 ft 338 kts 328°
2026-05-08 19:31 50.70896 72.23044 11324 ft 332 kts 328°
2026-05-08 19:31 50.72951 72.21385 11014 ft 328 kts 327°
2026-05-08 19:31 50.74971 72.19752 10772 ft 326 kts 327°
2026-05-08 19:31 50.76950 72.18154 10619 ft 316 kts 327°
2026-05-08 19:32 50.78242 72.17110 10521 ft 309 kts 327°
2026-05-08 19:32 50.80144 72.15571 10360 ft 300 kts 327°
2026-05-08 19:32 50.82587 72.13590 10145 ft 288 kts 326°
2026-05-08 19:32 50.83762 72.12637 10043 ft 283 kts 326°
2026-05-08 19:33 50.86080 72.10751 9821 ft 279 kts 326°
2026-05-08 19:33 50.87775 72.09371 9646 ft 277 kts 326°
2026-05-08 19:33 50.89500 72.07967 9471 ft 276 kts 327°
2026-05-08 19:33 50.91196 72.06585 9297 ft 275 kts 327°
2026-05-08 19:34 50.92876 72.05217 9127 ft 274 kts 327°
2026-05-08 19:34 50.94575 72.03831 8956 ft 273 kts 327°
2026-05-08 19:34 50.96256 72.02458 8784 ft 272 kts 327°
2026-05-08 19:34 50.97947 72.01078 8576 ft 272 kts 327°
2026-05-08 19:35 50.99617 71.99713 8373 ft 270 kts 328°
2026-05-08 19:35 51.01282 71.98351 8177 ft 270 kts 328°
2026-05-08 19:35 51.02394 71.97441 8040 ft 270 kts 328°
2026-05-08 19:35 51.04341 71.95847 7803 ft 268 kts 328°
2026-05-08 19:36 51.05426 71.94957 7680 ft 268 kts 328°
2026-05-08 19:36 51.08112 71.92753 7406 ft 268 kts 328°
2026-05-08 19:36 51.09813 71.91355 7230 ft 267 kts 328°
2026-05-08 19:37 51.11414 71.90039 7064 ft 266 kts 328°
2026-05-08 19:37 51.13058 71.88686 6902 ft 265 kts 329°
2026-05-08 19:37 51.14443 71.87273 6751 ft 260 kts 315°
2026-05-08 19:37 51.15801 71.85226 6582 ft 251 kts 311°
2026-05-08 19:38 51.16991 71.83314 6422 ft 245 kts 311°
2026-05-08 19:38 51.17863 71.81911 6309 ft 240 kts 311°
2026-05-08 19:38 51.19717 71.78188 5999 ft 222 kts 284°
2026-05-08 19:39 51.19780 71.75194 5638 ft 218 kts 256°
2026-05-08 19:39 51.19049 71.73112 5364 ft 216 kts 232°
2026-05-08 19:39 51.18037 71.71358 5094 ft 215 kts 228°
2026-05-08 19:39 51.17000 71.69698 4831 ft 213 kts 227°
2026-05-08 19:40 51.15974 71.68092 4568 ft 207 kts 226°
2026-05-08 19:40 51.14965 71.66522 4314 ft 200 kts 226°
2026-05-08 19:40 51.13985 71.64996 4068 ft 192 kts 227°
2026-05-08 19:40 51.13102 71.63614 3834 ft 174 kts 227°
2026-05-08 19:41 51.12280 71.62326 3629 ft 161 kts 227°
2026-05-08 19:41 51.11505 71.61110 3424 ft 152 kts 227°
2026-05-08 19:41 51.10762 71.59942 3218 ft 149 kts 227°
2026-05-08 19:41 51.10025 71.58783 3021 ft 149 kts 227°
2026-05-08 19:42 51.09293 71.57633 2830 ft 149 kts 227°
2026-05-08 19:42 51.08564 71.56491 2638 ft 149 kts 226°
2026-05-08 19:42 51.07831 71.55343 2440 ft 148 kts 226°
2026-05-08 19:42 51.07101 71.54198 2238 ft 148 kts 225°
2026-05-08 19:43 51.06371 71.53057 2039 ft 148 kts 225°
2026-05-08 19:43 51.05632 71.51899 1836 ft 147 kts 225°
2026-05-08 19:43 51.04907 71.50766 1637 ft 147 kts 225°
2026-05-08 19:43 51.04188 71.49639 1425 ft 147 kts 225°
2026-05-08 19:44 51.03464 71.48508 1237 ft 148 kts 224°
2026-05-08 19:44 51.02813 71.47430 1181 ft 113 kts 216°
2026-05-08 19:44 51.02358 71.46778 1181 ft 75 kts 226°
2026-05-08 19:44 51.02065 71.46329 1181 ft 39 kts 226°